カタログに戻る

ATLAS 5 CENTAUR DEB

運用中HEO
NORAD 44661·DEBRIS·🇺🇸 United States

打ち上げ Oct 17, 2018 から Cape Canaveral Space Force Station

Loading…

次のパス (今後24時間)

TLE

最新Source: Space-Track

元期: Sep 14, 2026, 13:05 UTC

1 44661U 18079X   26257.54580901 -.00000153  00000-0  00000-0 0  9990
2 44661  13.1367  54.9740 4624337 272.4019  37.4017  1.72652615 50144

AllMySatでATLAS 5 CENTAUR DEBをリアルタイム追跡

Download on the App Store